[Date Prev][Date Next][Thread Prev][Thread Next] - [Date Index][Thread Index][Author Index]
2 Line ISS Keps 8-3
- Subject: [sarex] 2 Line ISS Keps 8-3
- From: "Dave Larsen PhD" <doc@xxxxxxxxxxx>
- Date: Fri, 3 Aug 2001 03:48:20 -0700
ISS
1 25544U 98067A 01215.14284693 .00014819 00000-0 20037-3 0 2953
2 25544 51.6380 211.6022 0011634 331.2964 149.0450 15.57909693154414
----
Via the sarex mailing list at AMSAT.ORG courtesy of AMSAT-NA.
To unsubscribe, send "unsubscribe sarex" to Majordomo@amsat.org
AMSAT Home